Location: Baturyn
(53.6332°N, 113.5041°W)
Time: 03:43:26
(UTC+00:00)

N. Korean satellite - Pass Details

Date: 09 December 2021
Orbit: 446 x 492 km, 97.3° (Epoch: 16 January)

Event Time Altitude Azimuth Distance (km) Brightness Sun altitude
Rises 13:17:06 0° 11° (N) 2,468 10.1 -19.6°
Reaches altitude 10° 13:19:09 10° 8° (N) 1,589 9.1 -19.3°
Maximum altitude 13:22:30 63° 288° (WNW) 506 6.3 -18.8°
Drops below altitude 10° 13:25:51 10° 206° (SSW) 1,575 9.0 -18.3°
Sets 13:27:52 0° 203° (SSW) 2,445 10.0 -18.0°
